Weather Roundup
Issued by NWS Corpus Christi, TX

Home | Current Version | Previous Version | Text Only | Print | Product List | Glossary On
Versions: 1 2 3 4 5 6 7 8 9 10 11 12 13 14 15 16 17 18 19 20 21 22 23 24 25 26 27 28 29 30 31 32 33 34 35 36 37 38 39 40 41 42 43 44 45 46 47 48 49 50
000
ASUS44 KCRP 280410
HRRCRP

SOUTH TEXAS REGIONAL WEATHER ROUNDUP
NATIONAL WEATHER SERVICE CORPUS CHRISTI TX
1100 PM CDT WED MAY 27 2015


TXZ229>244-280500-
...CORPUS CHRISTI AREA OBSERVATIONS...

CITY           SKY/WX    TMP DP  RH WIND       PRES   REMARKS
CORPUS CHRISTI PTCLDY    80  76  87 SE14      30.00S
NAS CORPUS CHR CLOUDY    81  77  88 SE17      30.01S
ROCKPORT       MOCLDY    81  75  82 SE17      30.01S
KINGSVILLE NAS MOCLDY    80  79  96 SE10      29.99S
ALICE          MOCLDY    79  76  90 SE8       29.99S
FALFURRIAS     MOCLDY    78  75  90 E7        29.98S
$$

...VICTORIA AREA OBSERVATIONS...

CITY           SKY/WX    TMP DP  RH WIND       PRES   REMARKS
VICTORIA       MOCLDY    76  74  93 SE8       30.04S
BEEVILLE       FAIR      76  76 100 E7        30.01S
PLEASANTON     MOCLDY    77  72  84 E7        30.02R
SAN ANTONIO    CLOUDY    78  73  84 SE14      30.03R
$$

...LAREDO AREA OBSERVATIONS...

CITY           SKY/WX    TMP DP  RH WIND       PRES   REMARKS
LAREDO         MOCLDY    80  74  82 SE14      29.98R
COTULLA        MOCLDY    80  71  74 SE12      29.99R
DEL RIO        CLOUDY    81  69  67 E8        29.96R
MCALLEN        CLOUDY    83  76  79 E9        29.98S HX  91
HEBBRONVILLE     N/A     78  74  88 E12       30.01R
$$

...OTHER TEXAS OBSERVATIONS...

CITY           SKY/WX    TMP DP  RH WIND       PRES   REMARKS
BROWNSVILLE    CLOUDY    81  78  91 E13       29.99R
HOUSTON        MOCLDY    75  71  87 SE6       30.08R
COL. STATION   MOCLDY    77  72  84 SE7       30.06R
AUSTIN         PTCLDY    74  72  93 E5        30.05R
WACO           MOCLDY    77  71  82 SE9       30.05R
FORT WORTH     CLOUDY    72  68  87 NE5       30.02R
WICHITA FALLS  CLOUDY    73  70  90 E10       30.01R
LUBBOCK        CLOUDY    74  64  71 SE23G31   29.98R
EL PASO        MOCLDY    81  21  11 N6        29.95R
$$

...MARINE OBSERVATIONS...

STATION/POSITION TIME  SKY/WX   TEMP    WIND        PRES    VSBY  WAVE   SWELL
                                AIR SEA DIR/SP/G                  HT/PER HT/PER
                 (UTC)          (F)     (DEG/KT/KT) (MB)    (MI)  (FT/S) (FT/S)
PORT ARANSAS     0400            81 82  110/ 15/ 18 1016.9S
BUOY 90 E PORT A 0350            80 80  130/ 16/ 19 1017.3R         5/ 6
BUOY 45 SE BAFFI 0350            81 82  130/ 17/ 21 1015.3R         6/ 6
BUOY 200 E PT IS 0350            81 82  110/ 16/ 17 1017.2R         5/ 6
BUOY 15 E GALVES 0350            79 80  120/ 12/ 14 1017.7S         3/ 6   2/ 6
$$



USA.gov is the U.S. government's official web portal to all federal, state and local government web resources and services.